SCP
0 0 0 0 0 0 0 0 0 0 0 0 0 0 0 0 0 0 0 0 0 0 -0 -0 -0 0 0 0 0 -0 0 2 2 4 3 3 3 3 2 1 1 1 0
0 0 0 0 0 0 0 0 0 0 0 0 0 0 0 0 0 0 0 0 0 0 0 0 -0 -0 -0 0 0 -0 0 1 3 4 4 2 1 1 1 1 1 1 0
0 0 0 0 0 0 0 0 0 0 0 0 0 0 0 0 0 0 0 0 0 0 0 0 -0 -0 -0 0 0 0 0 0 2 2 3 2 1 1 1 1 1 1 1
0 0 0 0 0 0 0 0 0 0 0 0 0 0 0 0 0 0 0 0 0 0 0 0 0 0 0 0 0 -0 0 0 1 1 2 2 2 1 1 1 1 1 1
0 0 0 0 0 0 0 0 0 0 0 0 0 0 0 0 0 0 0 0 0 0 0 0 0 0 0 0 0 0 0 0 0 1 1 1 1 2 1 1 1 0 0
0 0 0 0 0 0 0 0 0 0 0 0 0 0 0 0 0 0 0 0 0 0 0 0 0 0 0 0 0 0 0 0 0 1 1 1 1 1 1 1 1 1 0
0 0 0 0 0 0 0 0 0 0 0 0 0 0 0 0 0 0 0 0 0 0 0 0 0 0 0 0 0 0 0 0 0 0 0 0 0 0 0 0 0 0 0
0 0 0 0 0 0 0 0 0 0 0 0 0 0 0 0 0 0 0 0 0 0 0 0 0 0 0 0 0 0 0 0 0 0 0 0 0 0 0 0 0 0 0
0 0 0 0 0 0 0 0 0 0 0 0 0 0 0 0 0 0 0 0 0 0 0 0 0 0 0 0 0 0 0 0 0 0 0 0 0 0 0 0 0 0 0
0 0 0 0 0 0 0 0 0 0 0 0 0 0 0 0 0 0 0 0 0 0 0 0 0 0 0 0 0 0 0 0 0 0 0 0 -0 -0 0 0 0 0 0
0 0 0 0 0 0 0 0 0 0 0 0 0 0 0 0 0 0 0 0 0 -0 0 0 0 0 0 0 0 0 0 0 0 0 0 0 0 0 0 -0 -0 0 0
0 0 0 0 0 0 0 0 0 0 0 0 0 0 0 0 0 0 0 0 0 0 0 0 0 0 0 0 0 0 0 0 0 0 0 0 0 0 0 0 -0 0 0
0 0 0 0 0 0 0 0 0 0 0 0 0 0 0 0 0 0 0 0 0 0 0 0 0 0 0 0 0 0 0 0 0 0 0 0 0 0 0 0 0 0 0
0 0 0 0 0 0 0 0 0 0 0 0 0 0 0 0 0 0 0 0 0 0 0 0 0 0 0 0 0 0 0 0 0 0 0 0 0 0 0 0 0 0 0
0 0 0 0 0 0 0 0 0 0 0 0 0 -0 0 0 0 0 0 0 0 0 0 0 0 0 0 0 0 0 0 0 0 0 0 0 0 0 0 0 0 0 0
0 0 0 0 0 0 0 0 0 0 0 0 0 0 0 0 0 0 0 0 0 0 0 0 0 -0 0 0 0 0 0 0 0 0 0 0 0 0 0 0 0 0 0
0 0 0 0 0 0 0 0 0 0 0 0 0 0 0 0 0 0 0 0 0 0 -0 0 0 0 0 -0 -0 -0 0 0 0 0 0 0 0 0 0 0 0 0 0
0 0 0 0 0 0 0 0 0 0 -0 0 0 0 0 0 0 -0 0 -0 -0 -0 -0 -0 -0 -0 -0 -0 -0 -0 -0 0 0 0 0 0 0 0 0 0 0 0 0
0 0 0 0 0 0 0 0 0 -0 0 0 0 0 0 -0 -0 0 0 0 0 0 0 0 0 0 0 0 -0 -0 -0 -0 0 -0 0 0 0 0 0 0 0 0 0
0 0 0 0 0 0 0 0 0 0 0 0 0 -0 -0 -0 -0 -0 -0 -0 -0 -0 -0 -0 0 0 0 -0 -0 -0 -0 -0 -0 -0 0 0 0 0 0 0 0 0 0
0 0 0 0 0 0 -0 0 0 0 0 0 -0 -0 -0 -0 -0 -0 -0 -0 -0 -0 -0 -0 0 0 0 -0 -0 -0 -0 -0 -0 -0 -0 -0 -0 -0 -0 -0 0 0 0
0 0 0 0 0 0 -0 0 0 0 0 0 -0 -0 -0 -0 -0 -0 -0 -0 -0 -0 -0 0 0 -0 0 -0 -0 -0 -0 -0 -0 -0 -0 -0 0 0 0 -0 -0 0 0
0 0 0 0 -0 0 0 0 0 0 0 -0 -0 -0 -0 -0 -0 -0 -0 -0 -0 0 -0 -0 0 0 -0 0 0 -0 0 -0 -0 -0 -0 -0 -0 -0 -0 0 0 0 0
0 0 -0 -0 0 0 0 0 0 -0 -0 -0 -0 -0 -0 -0 -0 -0 -0 -0 -0 -0 -0 -0 -0 -0 0 -0 -0 -0 -0 -0 -0 -0 -0 -0 -0 -0 0 0 0 0 0
0 0 0 0 0 0 0 0 -0 -0 -0 -0 -0 -0 -0 -0 0 -0 -0 -0 -0 -0 0 0 0 0 0 -0 -0 -0 -0 -0 -0 0 -0 -0 0 0 0 0 0 0 0
0 0 0 0 0 -0 -0 -0 -0 -0 -0 -0 0 0 0 0 0 0 0 -0 0 -0 -0 -0 0 -0 -0 -0 -0 -0 -0 -0 0 0 0 0 0 0 0 0 0 0 0
Wind_Speed_500mb
32 28 24 18 10 7 14 25 33 42 46 47 52 55 59 58 54 51 51 55 58 61 65 62 60 58 58 59 64 71 59 58 60 54 50 43 59 59 54 51 46 42 38
29 29 24 15 6 11 19 27 32 36 42 46 48 48 53 53 49 54 51 53 58 61 64 67 72 70 66 62 57 63 53 49 50 58 49 42 56 58 54 52 48 40 34
26 22 14 6 9 14 18 21 29 38 43 46 48 49 52 48 48 55 62 61 65 70 72 72 73 75 72 65 55 56 49 42 39 50 51 31 38 33 45 61 43 35 30
17 13 8 5 6 13 14 25 35 42 42 43 45 48 51 54 53 63 66 73 74 76 75 73 71 73 72 67 58 53 53 34 39 40 52 55 19 22 21 34 32 27 26
10 5 2 2 7 10 20 30 34 38 38 39 42 47 49 48 53 58 69 77 73 78 77 70 67 68 68 62 56 48 45 33 25 28 28 32 29 45 32 31 21 18 15
9 6 2 4 12 21 27 31 32 36 42 50 56 60 66 70 69 66 68 65 67 68 71 69 62 63 62 59 50 45 35 38 30 20 24 24 19 19 19 17 17 19 20
10 5 4 10 17 25 30 34 42 52 59 64 67 68 72 75 74 74 68 73 70 66 65 62 59 56 55 50 51 43 33 32 34 22 18 19 16 17 28 29 27 26 18
10 6 10 18 22 29 37 47 55 64 71 71 70 68 75 64 61 63 81 74 63 63 64 62 54 51 46 42 44 39 35 30 28 29 22 18 26 30 24 20 15 16 17
7 9 16 19 26 38 48 60 68 76 74 64 61 64 65 61 64 74 71 52 57 56 53 51 43 45 32 37 33 33 31 26 28 29 32 26 27 29 29 25 22 18 12
9 14 21 32 38 47 57 64 74 76 66 58 57 59 58 55 64 59 62 57 58 56 49 44 38 30 26 31 32 29 27 21 18 22 23 22 22 19 16 16 17 20 27
17 26 33 34 41 48 47 65 72 64 60 55 54 54 48 51 50 60 58 48 53 50 37 35 31 26 25 29 27 24 20 14 12 10 8 8 10 10 9 7 9 13 22
25 30 32 37 38 46 57 62 64 61 56 53 52 47 44 47 49 53 40 40 41 34 33 24 24 20 23 20 20 17 14 12 9 7 4 4 4 5 8 5 8 10 15
32 37 34 36 40 55 62 61 62 57 57 48 46 42 46 47 49 43 44 33 30 25 28 24 17 16 17 19 19 17 13 10 12 9 6 4 4 4 3 5 6 8 12
38 44 42 39 40 51 56 60 60 58 48 46 42 47 45 32 45 38 37 28 25 21 18 17 18 19 17 16 16 16 12 9 10 9 8 4 4 3 6 4 1 5 13
46 48 42 42 44 53 54 56 56 51 44 44 38 38 34 38 32 31 32 23 18 18 20 19 18 20 19 21 22 21 18 9 12 8 7 7 6 9 12 14 12 9 6
49 50 46 42 49 46 55 58 50 40 42 37 32 33 39 27 27 28 19 13 15 19 23 24 24 22 22 27 28 27 16 13 18 23 12 14 10 11 13 10 17 10 7
51 53 44 39 40 50 54 47 38 37 33 22 29 26 18 23 26 25 32 34 30 25 22 22 22 23 24 27 32 24 20 21 24 27 30 22 18 16 14 15 9 10 13
50 48 44 45 44 50 42 34 31 30 30 28 18 17 20 25 24 23 26 28 28 27 28 28 26 23 26 29 32 28 24 27 25 27 33 33 30 28 29 29 27 24 21
52 51 48 39 41 42 38 20 25 28 18 19 25 25 23 21 22 24 22 22 25 26 24 25 24 24 25 30 31 31 22 24 25 23 23 25 26 26 34 35 31 27 20
56 55 46 37 37 36 20 18 20 13 23 26 26 20 17 22 21 21 20 24 26 23 23 24 24 23 24 25 25 25 25 28 20 21 23 22 20 29 26 24 26 19 16
49 43 35 26 30 16 13 9 14 29 26 23 23 16 25 28 29 34 22 24 28 38 27 26 26 28 28 25 27 24 17 18 20 21 26 30 26 21 21 24 22 19 13
46 41 36 24 16 8 10 27 32 24 24 23 23 27 29 32 29 26 24 21 21 31 31 31 26 25 22 25 26 25 22 19 15 17 20 20 16 15 16 23 24 16 18
38 31 27 24 22 21 38 34 25 28 26 24 17 28 30 29 28 26 29 33 27 29 31 34 28 27 24 17 22 25 18 18 20 18 16 14 14 17 20 18 18 19 21
31 24 23 23 35 41 34 28 32 24 23 24 28 25 24 27 30 25 25 23 24 23 28 32 27 29 30 29 24 21 21 20 19 17 16 17 19 16 18 17 21 24 25
20 20 21 34 36 35 36 30 26 23 24 24 24 24 27 29 30 33 28 27 24 23 24 29 32 26 31 30 28 24 20 15 17 13 12 11 15 18 20 20 21 22 25
16 19 32 36 32 32 28 22 20 18 19 19 23 22 25 30 23 24 31 34 25 22 28 33 30 22 27 24 22 22 23 22 13 13 18 18 19 20 20 21 24 28 29
Wind_Direction_500mb
147 154 165 178 198 261 306 313 322 329 332 333 336 335 334 334 332 331 330 331 332 335 340 337 331 332 328 321 319 310 281 266 264 246 240 236 238 239 242 242 247 247 253
150 163 174 187 232 288 308 321 332 340 339 333 330 326 327 326 324 327 324 325 328 331 332 332 333 328 325 326 323 319 293 272 256 243 243 246 243 240 234 247 232 230 248
149 157 163 203 278 310 329 345 352 346 339 330 325 321 318 316 316 317 319 319 321 320 321 324 324 329 324 320 324 324 316 281 256 246 239 243 243 227 235 226 218 232 239
145 159 194 279 339 344 357 355 348 343 334 325 319 316 313 311 311 313 313 312 311 311 312 314 315 316 320 313 315 321 310 312 267 258 243 235 235 219 205 215 222 220 248
152 167 188 6 348 350 349 342 334 331 324 320 316 313 311 308 307 307 306 306 305 303 304 307 308 309 311 311 308 312 316 304 281 255 263 250 250 242 244 234 237 249 266
186 193 205 346 344 340 335 331 330 328 323 317 312 308 309 312 310 308 307 306 303 302 301 302 301 304 306 304 306 307 306 298 278 247 240 252 248 241 227 228 258 281 279
197 220 267 311 325 334 337 339 333 325 319 312 309 304 305 309 310 308 308 308 305 300 297 301 297 300 302 303 306 302 295 290 284 275 275 266 268 263 267 259 255 271 278
209 250 308 327 331 335 336 333 328 324 321 314 308 298 304 308 306 307 311 304 300 302 302 303 294 296 300 303 307 306 296 287 284 279 298 291 290 287 262 249 247 265 259
225 280 317 331 330 331 331 326 327 326 321 312 306 304 308 309 307 312 318 313 313 312 306 304 295 298 303 308 319 315 305 299 289 282 279 290 284 274 278 271 251 238 246
291 309 319 319 320 320 322 328 329 326 321 317 313 311 312 308 311 313 315 315 314 315 310 303 294 302 311 317 316 313 309 306 306 297 284 285 280 266 261 252 256 248 235
312 317 310 306 311 319 328 329 328 326 323 321 320 317 316 318 319 321 321 317 320 316 311 307 320 313 315 318 317 318 318 322 330 327 301 276 259 272 274 281 252 244 238
301 299 294 297 312 323 327 329 328 326 326 323 322 322 322 326 331 331 334 317 331 331 325 331 325 320 319 326 333 337 342 348 359 351 329 320 323 309 309 294 239 229 242
297 300 292 299 312 320 326 329 328 325 324 321 325 330 328 326 329 334 329 330 327 325 321 321 325 328 334 335 333 332 339 12 8 3 20 13 340 333 349 320 267 226 223
311 307 294 297 308 319 326 327 327 327 324 323 327 330 326 324 330 332 336 337 334 334 340 343 341 338 342 344 348 347 351 25 37 22 16 330 332 43 50 20 267 212 209
314 313 299 299 307 317 325 325 326 328 331 334 333 330 334 331 338 345 350 357 8 31 25 21 46 40 36 36 28 24 24 36 46 40 20 63 86 74 64 64 63 70 181
317 317 304 300 313 323 324 326 327 328 332 337 334 329 333 350 1 359 355 1 352 359 60 43 38 42 44 29 25 19 19 71 68 55 66 114 74 69 71 78 50 59 131
319 317 312 313 317 323 326 325 333 336 342 337 336 347 19 25 34 26 51 48 51 48 40 38 40 47 52 38 19 31 61 67 75 52 60 78 76 62 60 66 98 90 104
321 319 313 311 317 324 326 328 338 348 348 348 12 48 59 43 34 37 35 38 40 48 53 50 50 56 50 42 50 48 69 65 71 58 56 63 67 68 67 69 77 79 97
319 313 313 310 319 325 327 337 345 345 9 55 67 55 51 43 38 40 44 39 47 57 57 55 51 57 50 50 48 43 65 71 71 75 65 63 57 56 57 50 47 47 66
320 315 311 309 318 326 342 345 345 34 81 71 59 41 29 39 43 45 51 61 50 49 50 49 49 49 47 45 40 56 62 59 68 57 38 46 64 67 55 44 37 37 72
337 335 331 324 320 344 2 12 66 96 76 50 46 49 65 57 45 56 64 61 46 54 54 47 46 47 31 37 47 42 73 65 64 64 64 57 63 53 38 26 27 28 64
347 346 336 349 358 21 69 98 100 73 57 56 59 66 60 61 47 51 43 46 51 62 47 35 36 42 42 35 36 36 42 55 58 68 65 61 36 36 35 4 7 63 88
353 5 22 33 54 90 110 97 74 71 66 66 56 67 66 58 54 55 50 51 72 53 42 38 42 44 41 48 40 31 49 39 67 48 45 45 37 20 22 44 66 84 104
5 28 49 66 94 101 90 76 77 71 71 73 80 57 61 50 42 47 53 54 48 39 40 38 42 40 43 44 33 41 38 40 24 26 33 28 29 49 75 78 82 85 103
24 54 79 107 98 84 82 83 82 77 78 71 57 51 49 46 37 46 54 50 47 46 39 34 43 46 38 37 35 27 26 29 15 17 37 39 73 76 82 80 76 79 99
69 86 117 106 91 95 92 91 82 75 65 64 48 49 39 25 29 48 55 57 56 42 38 33 42 48 44 31 30 29 36 37 39 60 68 76 84 82 85 82 83 92 99
Wind_Speed_850mb
32 28 24 18 10 7 14 25 33 42 46 47 52 55 59 58 54 51 51 55 58 61 65 62 60 58 58 59 64 71 59 58 60 54 50 43 59 59 54 51 46 42 38
29 29 24 15 6 11 19 27 32 36 42 46 48 48 53 53 49 54 51 53 58 61 64 67 72 70 66 62 57 63 53 49 50 58 49 42 56 58 54 52 48 40 34
26 22 14 6 9 14 18 21 29 38 43 46 48 49 52 48 48 55 62 61 65 70 72 72 73 75 72 65 55 56 49 42 39 50 51 31 38 33 45 61 43 35 30
17 13 8 5 6 13 14 25 35 42 42 43 45 48 51 54 53 63 66 73 74 76 75 73 71 73 72 67 58 53 53 34 39 40 52 55 19 22 21 34 32 27 26
10 5 2 2 7 10 20 30 34 38 38 39 42 47 49 48 53 58 69 77 73 78 77 70 67 68 68 62 56 48 45 33 25 28 28 32 29 45 32 31 21 18 15
9 6 2 4 12 21 27 31 32 36 42 50 56 60 66 70 69 66 68 65 67 68 71 69 62 63 62 59 50 45 35 38 30 20 24 24 19 19 19 17 17 19 20
10 5 4 10 17 25 30 34 42 52 59 64 67 68 72 75 74 74 68 73 70 66 65 62 59 56 55 50 51 43 33 32 34 22 18 19 16 17 28 29 27 26 18
10 6 10 18 22 29 37 47 55 64 71 71 70 68 75 64 61 63 81 74 63 63 64 62 54 51 46 42 44 39 35 30 28 29 22 18 26 30 24 20 15 16 17
7 9 16 19 26 38 48 60 68 76 74 64 61 64 65 61 64 74 71 52 57 56 53 51 43 45 32 37 33 33 31 26 28 29 32 26 27 29 29 25 22 18 12
9 14 21 32 38 47 57 64 74 76 66 58 57 59 58 55 64 59 62 57 58 56 49 44 38 30 26 31 32 29 27 21 18 22 23 22 22 19 16 16 17 20 27
17 26 33 34 41 48 47 65 72 64 60 55 54 54 48 51 50 60 58 48 53 50 37 35 31 26 25 29 27 24 20 14 12 10 8 8 10 10 9 7 9 13 22
25 30 32 37 38 46 57 62 64 61 56 53 52 47 44 47 49 53 40 40 41 34 33 24 24 20 23 20 20 17 14 12 9 7 4 4 4 5 8 5 8 10 15
32 37 34 36 40 55 62 61 62 57 57 48 46 42 46 47 49 43 44 33 30 25 28 24 17 16 17 19 19 17 13 10 12 9 6 4 4 4 3 5 6 8 12
38 44 42 39 40 51 56 60 60 58 48 46 42 47 45 32 45 38 37 28 25 21 18 17 18 19 17 16 16 16 12 9 10 9 8 4 4 3 6 4 1 5 13
46 48 42 42 44 53 54 56 56 51 44 44 38 38 34 38 32 31 32 23 18 18 20 19 18 20 19 21 22 21 18 9 12 8 7 7 6 9 12 14 12 9 6
49 50 46 42 49 46 55 58 50 40 42 37 32 33 39 27 27 28 19 13 15 19 23 24 24 22 22 27 28 27 16 13 18 23 12 14 10 11 13 10 17 10 7
51 53 44 39 40 50 54 47 38 37 33 22 29 26 18 23 26 25 32 34 30 25 22 22 22 23 24 27 32 24 20 21 24 27 30 22 18 16 14 15 9 10 13
50 48 44 45 44 50 42 34 31 30 30 28 18 17 20 25 24 23 26 28 28 27 28 28 26 23 26 29 32 28 24 27 25 27 33 33 30 28 29 29 27 24 21
52 51 48 39 41 42 38 20 25 28 18 19 25 25 23 21 22 24 22 22 25 26 24 25 24 24 25 30 31 31 22 24 25 23 23 25 26 26 34 35 31 27 20
56 55 46 37 37 36 20 18 20 13 23 26 26 20 17 22 21 21 20 24 26 23 23 24 24 23 24 25 25 25 25 28 20 21 23 22 20 29 26 24 26 19 16
49 43 35 26 30 16 13 9 14 29 26 23 23 16 25 28 29 34 22 24 28 38 27 26 26 28 28 25 27 24 17 18 20 21 26 30 26 21 21 24 22 19 13
46 41 36 24 16 8 10 27 32 24 24 23 23 27 29 32 29 26 24 21 21 31 31 31 26 25 22 25 26 25 22 19 15 17 20 20 16 15 16 23 24 16 18
38 31 27 24 22 21 38 34 25 28 26 24 17 28 30 29 28 26 29 33 27 29 31 34 28 27 24 17 22 25 18 18 20 18 16 14 14 17 20 18 18 19 21
31 24 23 23 35 41 34 28 32 24 23 24 28 25 24 27 30 25 25 23 24 23 28 32 27 29 30 29 24 21 21 20 19 17 16 17 19 16 18 17 21 24 25
20 20 21 34 36 35 36 30 26 23 24 24 24 24 27 29 30 33 28 27 24 23 24 29 32 26 31 30 28 24 20 15 17 13 12 11 15 18 20 20 21 22 25
16 19 32 36 32 32 28 22 20 18 19 19 23 22 25 30 23 24 31 34 25 22 28 33 30 22 27 24 22 22 23 22 13 13 18 18 19 20 20 21 24 28 29
Wind_Direction_850mb
147 154 165 178 198 261 306 313 322 329 332 333 336 335 334 334 332 331 330 331 332 335 340 337 331 332 328 321 319 310 281 266 264 246 240 236 238 239 242 242 247 247 253
150 163 174 187 232 288 308 321 332 340 339 333 330 326 327 326 324 327 324 325 328 331 332 332 333 328 325 326 323 319 293 272 256 243 243 246 243 240 234 247 232 230 248
149 157 163 203 278 310 329 345 352 346 339 330 325 321 318 316 316 317 319 319 321 320 321 324 324 329 324 320 324 324 316 281 256 246 239 243 243 227 235 226 218 232 239
145 159 194 279 339 344 357 355 348 343 334 325 319 316 313 311 311 313 313 312 311 311 312 314 315 316 320 313 315 321 310 312 267 258 243 235 235 219 205 215 222 220 248
152 167 188 6 348 350 349 342 334 331 324 320 316 313 311 308 307 307 306 306 305 303 304 307 308 309 311 311 308 312 316 304 281 255 263 250 250 242 244 234 237 249 266
186 193 205 346 344 340 335 331 330 328 323 317 312 308 309 312 310 308 307 306 303 302 301 302 301 304 306 304 306 307 306 298 278 247 240 252 248 241 227 228 258 281 279
197 220 267 311 325 334 337 339 333 325 319 312 309 304 305 309 310 308 308 308 305 300 297 301 297 300 302 303 306 302 295 290 284 275 275 266 268 263 267 259 255 271 278
209 250 308 327 331 335 336 333 328 324 321 314 308 298 304 308 306 307 311 304 300 302 302 303 294 296 300 303 307 306 296 287 284 279 298 291 290 287 262 249 247 265 259
225 280 317 331 330 331 331 326 327 326 321 312 306 304 308 309 307 312 318 313 313 312 306 304 295 298 303 308 319 315 305 299 289 282 279 290 284 274 278 271 251 238 246
291 309 319 319 320 320 322 328 329 326 321 317 313 311 312 308 311 313 315 315 314 315 310 303 294 302 311 317 316 313 309 306 306 297 284 285 280 266 261 252 256 248 235
312 317 310 306 311 319 328 329 328 326 323 321 320 317 316 318 319 321 321 317 320 316 311 307 320 313 315 318 317 318 318 322 330 327 301 276 259 272 274 281 252 244 238
301 299 294 297 312 323 327 329 328 326 326 323 322 322 322 326 331 331 334 317 331 331 325 331 325 320 319 326 333 337 342 348 359 351 329 320 323 309 309 294 239 229 242
297 300 292 299 312 320 326 329 328 325 324 321 325 330 328 326 329 334 329 330 327 325 321 321 325 328 334 335 333 332 339 12 8 3 20 13 340 333 349 320 267 226 223
311 307 294 297 308 319 326 327 327 327 324 323 327 330 326 324 330 332 336 337 334 334 340 343 341 338 342 344 348 347 351 25 37 22 16 330 332 43 50 20 267 212 209
314 313 299 299 307 317 325 325 326 328 331 334 333 330 334 331 338 345 350 357 8 31 25 21 46 40 36 36 28 24 24 36 46 40 20 63 86 74 64 64 63 70 181
317 317 304 300 313 323 324 326 327 328 332 337 334 329 333 350 1 359 355 1 352 359 60 43 38 42 44 29 25 19 19 71 68 55 66 114 74 69 71 78 50 59 131
319 317 312 313 317 323 326 325 333 336 342 337 336 347 19 25 34 26 51 48 51 48 40 38 40 47 52 38 19 31 61 67 75 52 60 78 76 62 60 66 98 90 104
321 319 313 311 317 324 326 328 338 348 348 348 12 48 59 43 34 37 35 38 40 48 53 50 50 56 50 42 50 48 69 65 71 58 56 63 67 68 67 69 77 79 97
319 313 313 310 319 325 327 337 345 345 9 55 67 55 51 43 38 40 44 39 47 57 57 55 51 57 50 50 48 43 65 71 71 75 65 63 57 56 57 50 47 47 66
320 315 311 309 318 326 342 345 345 34 81 71 59 41 29 39 43 45 51 61 50 49 50 49 49 49 47 45 40 56 62 59 68 57 38 46 64 67 55 44 37 37 72
337 335 331 324 320 344 2 12 66 96 76 50 46 49 65 57 45 56 64 61 46 54 54 47 46 47 31 37 47 42 73 65 64 64 64 57 63 53 38 26 27 28 64
347 346 336 349 358 21 69 98 100 73 57 56 59 66 60 61 47 51 43 46 51 62 47 35 36 42 42 35 36 36 42 55 58 68 65 61 36 36 35 4 7 63 88
353 5 22 33 54 90 110 97 74 71 66 66 56 67 66 58 54 55 50 51 72 53 42 38 42 44 41 48 40 31 49 39 67 48 45 45 37 20 22 44 66 84 104
5 28 49 66 94 101 90 76 77 71 71 73 80 57 61 50 42 47 53 54 48 39 40 38 42 40 43 44 33 41 38 40 24 26 33 28 29 49 75 78 82 85 103
24 54 79 107 98 84 82 83 82 77 78 71 57 51 49 46 37 46 54 50 47 46 39 34 43 46 38 37 35 27 26 29 15 17 37 39 73 76 82 80 76 79 99
69 86 117 106 91 95 92 91 82 75 65 64 48 49 39 25 29 48 55 57 56 42 38 33 42 48 44 31 30 29 36 37 39 60 68 76 84 82 85 82 83 92 99